Time,TemperatureF,DewpointF,PressureIn,WindDirection,WindDirectionDegrees,WindSpeedMPH,WindSpeedGustMPH,Humidity,HourlyPrecipIn,Conditions,Clouds,dailyrainin,SoftwareType,DateUTC
2013-12-28 00:00:00,31.3,26.8,30.09,NNE,23,0.0,0.0,83,0.00,,,0.00,WUHU216HW,2013-12-28 05:00:00,
2013-12-28 00:01:00,31.3,26.8,30.09,NNE,23,0.0,0.0,83,0.00,,,0.00,WUHU216HW,2013-12-28 05:01:00,
2013-12-28 00:06:00,31.3,26.8,30.09,NNE,23,0.0,0.0,83,0.00,,,0.00,WUHU216HW,2013-12-28 05:06:00,
2013-12-28 00:30:00,32.9,27.5,30.07,NNE,23,0.0,0.0,80,0.00,,,0.00,WUHU216HW,2013-12-28 05:30:00,
2013-12-28 00:35:00,32.9,27.5,30.07,NNE,23,0.0,0.0,80,0.00,,,0.00,WUHU216HW,2013-12-28 05:35:00,
2013-12-28 01:00:00,33.7,27.8,30.06,North,0,0.0,0.0,79,0.00,,,0.00,WUHU216HW,2013-12-28 06:00:00,
2013-12-28 01:05:00,33.7,27.5,30.06,North,0,0.0,0.0,78,0.00,,,0.00,WUHU216HW,2013-12-28 06:05:00,
2013-12-28 01:10:00,33.7,27.5,30.06,North,0,0.0,0.0,78,0.00,,,0.00,WUHU216HW,2013-12-28 06:10:00,
2013-12-28 01:30:00,34.7,27.9,30.05,North,0,0.0,0.0,76,0.00,,,0.00,WUHU216HW,2013-12-28 06:30:00,
2013-12-28 01:35:00,34.7,27.9,30.05,North,0,0.0,0.0,76,0.00,,,0.00,WUHU216HW,2013-12-28 06:35:00,
2013-12-28 02:00:00,36.0,28.4,30.05,North,0,0.0,0.0,74,0.00,,,0.00,WUHU216HW,2013-12-28 07:00:00,
2013-12-28 02:05:00,36.0,28.4,30.05,North,0,0.0,0.0,74,0.00,,,0.00,WUHU216HW,2013-12-28 07:05:00,
2013-12-28 02:30:00,36.4,28.5,30.05,North,0,0.0,0.0,73,0.00,,,0.00,WUHU216HW,2013-12-28 07:30:00,
2013-12-28 02:35:00,36.4,28.5,30.05,North,0,0.0,0.0,73,0.00,,,0.00,WUHU216HW,2013-12-28 07:35:00,
2013-12-28 03:00:00,36.5,28.7,30.04,North,0,0.0,0.0,73,0.00,,,0.00,WUHU216HW,2013-12-28 08:00:00,
2013-12-28 03:05:00,36.5,28.7,30.04,North,0,0.0,0.0,73,0.00,,,0.00,WUHU216HW,2013-12-28 08:05:00,
2013-12-28 03:30:00,36.5,28.7,30.03,North,0,0.0,0.0,73,0.00,,,0.00,WUHU216HW,2013-12-28 08:30:00,
2013-12-28 03:35:00,36.5,28.7,30.03,North,0,0.0,0.0,73,0.00,,,0.00,WUHU216HW,2013-12-28 08:35:00,
2013-12-28 04:00:00,36.7,28.9,30.01,North,0,0.0,0.0,73,0.00,,,0.00,WUHU216HW,2013-12-28 09:00:00,
2013-12-28 04:05:00,36.7,28.9,30.01,North,0,0.0,0.0,73,0.00,,,0.00,WUHU216HW,2013-12-28 09:05:00,
2013-12-28 04:30:00,38.3,29.4,29.99,North,0,0.0,0.0,70,0.00,,,0.00,WUHU216HW,2013-12-28 09:30:00,
2013-12-28 04:35:00,38.3,29.4,29.99,North,0,0.0,0.0,70,0.00,,,0.00,WUHU216HW,2013-12-28 09:35:00,
2013-12-28 05:00:00,38.7,29.8,29.98,North,0,0.0,0.0,70,0.00,,,0.00,WUHU216HW,2013-12-28 10:00:00,
2013-12-28 05:05:00,38.7,29.8,29.98,North,0,0.0,0.0,70,0.00,,,0.00,WUHU216HW,2013-12-28 10:05:00,
2013-12-28 05:30:00,39.4,29.7,29.99,North,0,0.0,0.0,68,0.00,,,0.00,WUHU216HW,2013-12-28 10:30:00,
2013-12-28 05:35:00,39.4,29.7,29.99,North,0,0.0,0.0,68,0.00,,,0.00,WUHU216HW,2013-12-28 10:35:00,
2013-12-28 06:00:00,39.8,29.6,30.00,North,0,0.0,0.0,67,0.00,,,0.00,WUHU216HW,2013-12-28 11:00:00,
2013-12-28 06:02:00,39.8,29.6,30.00,North,0,0.0,0.0,67,0.00,,,0.00,WUHU216HW,2013-12-28 11:02:00,
2013-12-28 06:07:00,39.8,29.6,30.00,North,0,0.0,0.0,67,0.00,,,0.00,WUHU216HW,2013-12-28 11:07:00,
2013-12-28 06:30:00,39.8,30.1,30.01,North,0,0.0,0.0,68,0.00,,,0.00,WUHU216HW,2013-12-28 11:30:00,
2013-12-28 06:35:00,39.8,30.1,30.01,North,0,0.0,0.0,68,0.00,,,0.00,WUHU216HW,2013-12-28 11:35:00,
2013-12-28 07:00:00,40.0,29.8,30.01,North,0,0.0,0.0,67,0.00,,,0.00,WUHU216HW,2013-12-28 12:00:00,
2013-12-28 07:05:00,40.0,29.8,30.01,North,0,0.0,0.0,67,0.00,,,0.00,WUHU216HW,2013-12-28 12:05:00,
2013-12-28 07:10:00,40.0,29.8,30.01,North,0,0.0,0.0,67,0.00,,,0.00,WUHU216HW,2013-12-28 12:10:00,
2013-12-28 07:30:00,39.8,30.1,30.03,North,0,0.0,0.0,68,0.00,,,0.00,WUHU216HW,2013-12-28 12:30:00,
2013-12-28 07:35:00,39.8,30.1,30.03,North,0,0.0,0.0,68,0.00,,,0.00,WUHU216HW,2013-12-28 12:35:00,
2013-12-28 08:00:00,39.2,29.9,30.04,North,0,0.0,0.0,69,0.00,,,0.00,WUHU216HW,2013-12-28 13:00:00,
2013-12-28 08:05:00,39.2,29.9,30.04,North,0,0.0,0.0,69,0.00,,,0.00,WUHU216HW,2013-12-28 13:05:00,
2013-12-28 08:30:00,40.1,31.1,30.05,North,0,0.0,0.0,70,0.00,,,0.00,WUHU216HW,2013-12-28 13:30:00,
2013-12-28 08:35:00,40.1,31.1,30.05,North,0,0.0,0.0,70,0.00,,,0.00,WUHU216HW,2013-12-28 13:35:00,
2013-12-28 09:00:00,40.3,31.7,30.07,North,0,0.0,0.0,71,0.00,,,0.00,WUHU216HW,2013-12-28 14:00:00,
2013-12-28 09:05:00,40.3,31.7,30.07,North,0,0.0,0.0,71,0.00,,,0.00,WUHU216HW,2013-12-28 14:05:00,
2013-12-28 09:30:00,40.5,31.9,30.08,NNE,23,0.0,0.0,71,0.00,,,0.00,WUHU216HW,2013-12-28 14:30:00,
2013-12-28 09:35:00,40.5,31.9,30.08,NNE,23,0.0,0.0,71,0.00,,,0.00,WUHU216HW,2013-12-28 14:35:00,
2013-12-28 10:00:00,40.1,32.5,30.09,NNE,23,0.0,0.0,74,0.00,,,0.00,WUHU216HW,2013-12-28 15:00:00,
2013-12-28 10:05:00,40.1,32.5,30.09,NNE,23,0.0,0.0,74,0.00,,,0.00,WUHU216HW,2013-12-28 15:05:00,
2013-12-28 10:30:00,40.0,32.7,30.08,NNE,23,0.0,0.0,75,0.00,,,0.00,WUHU216HW,2013-12-28 15:30:00,
2013-12-28 10:35:00,40.0,32.7,30.08,NNE,23,0.0,0.0,75,0.00,,,0.00,WUHU216HW,2013-12-28 15:35:00,
2013-12-28 11:00:00,39.6,32.7,30.08,NNE,23,0.0,0.0,76,0.00,,,0.00,WUHU216HW,2013-12-28 16:00:00,
2013-12-28 11:05:00,39.6,32.7,30.08,NNE,23,0.0,0.0,76,0.00,,,0.00,WUHU216HW,2013-12-28 16:05:00,
2013-12-28 11:30:00,40.0,33.3,30.07,NNE,23,0.0,0.0,77,0.00,,,0.00,WUHU216HW,2013-12-28 16:30:00,
2013-12-28 11:35:00,40.0,33.3,30.07,NNE,23,0.0,0.0,77,0.00,,,0.00,WUHU216HW,2013-12-28 16:35:00,
2013-12-28 12:00:00,39.8,33.1,30.07,NNE,23,0.0,0.0,77,0.00,,,0.00,WUHU216HW,2013-12-28 17:00:00,
2013-12-28 12:05:00,39.8,33.1,30.07,NNE,23,0.0,0.0,77,0.00,,,0.00,WUHU216HW,2013-12-28 17:05:00,
2013-12-28 12:30:00,39.8,33.5,30.05,NNE,23,0.0,0.0,78,0.00,,,0.00,WUHU216HW,2013-12-28 17:30:00,
2013-12-28 12:35:00,39.8,33.5,30.05,NNE,23,0.0,0.0,78,0.00,,,0.00,WUHU216HW,2013-12-28 17:35:00,
2013-12-28 13:00:00,40.1,33.9,30.05,NNE,23,0.0,0.0,78,0.00,,,0.00,WUHU216HW,2013-12-28 18:00:00,
2013-12-28 13:05:00,40.1,33.9,30.05,NNE,23,0.0,0.0,78,0.00,,,0.00,WUHU216HW,2013-12-28 18:05:00,
2013-12-28 13:30:00,42.7,35.7,30.03,NNE,23,0.0,0.0,76,0.00,,,0.00,WUHU216HW,2013-12-28 18:30:00,
2013-12-28 13:35:00,42.7,35.7,30.03,NNE,23,0.0,0.0,76,0.00,,,0.00,WUHU216HW,2013-12-28 18:35:00,
2013-12-28 14:00:00,42.1,34.7,30.03,NNE,23,0.0,0.0,75,0.00,,,0.00,WUHU216HW,2013-12-28 19:00:00,
2013-12-28 14:05:00,42.1,34.7,30.03,NNE,23,0.0,0.0,75,0.00,,,0.00,WUHU216HW,2013-12-28 19:05:00,
2013-12-28 14:30:00,43.2,35.8,30.01,NNE,23,0.0,0.0,75,0.00,,,0.00,WUHU216HW,2013-12-28 19:30:00,
2013-12-28 14:35:00,43.2,35.8,30.01,NNE,23,0.0,0.0,75,0.00,,,0.00,WUHU216HW,2013-12-28 19:35:00,
2013-12-28 15:00:00,43.4,34.7,30.02,NNE,23,0.0,0.0,71,0.00,,,0.00,WUHU216HW,2013-12-28 20:00:00,
2013-12-28 15:05:00,43.4,34.7,30.02,NNE,23,0.0,0.0,71,0.00,,,0.00,WUHU216HW,2013-12-28 20:05:00,
2013-12-28 15:30:00,43.0,34.7,30.03,NNE,23,0.0,0.0,72,0.00,,,0.00,WUHU216HW,2013-12-28 20:30:00,
2013-12-28 15:35:00,43.0,34.7,30.03,NNE,23,0.0,0.0,72,0.00,,,0.00,WUHU216HW,2013-12-28 20:35:00,
2013-12-28 16:00:00,42.5,34.1,30.03,NNE,23,0.0,0.0,72,0.00,,,0.00,WUHU216HW,2013-12-28 21:00:00,
2013-12-28 16:05:00,42.5,34.1,30.03,NNE,23,0.0,0.0,72,0.00,,,0.00,WUHU216HW,2013-12-28 21:05:00,
2013-12-28 16:30:00,41.0,33.3,30.03,NNE,23,0.0,0.0,74,0.00,,,0.00,WUHU216HW,2013-12-28 21:30:00,
2013-12-28 16:35:00,41.0,33.3,30.03,NNE,23,0.0,0.0,74,0.00,,,0.00,WUHU216HW,2013-12-28 21:35:00,
2013-12-28 17:00:00,39.2,32.3,30.03,NNE,23,0.0,0.0,76,0.00,,,0.00,WUHU216HW,2013-12-28 22:00:00,
2013-12-28 17:05:00,39.2,32.3,30.03,NNE,23,0.0,0.0,76,0.00,,,0.00,WUHU216HW,2013-12-28 22:05:00,
2013-12-28 17:30:00,37.6,31.1,30.05,NNE,23,0.0,0.0,77,0.00,,,0.00,WUHU216HW,2013-12-28 22:30:00,
2013-12-28 17:35:00,37.6,31.1,30.05,NNE,23,0.0,0.0,77,0.00,,,0.00,WUHU216HW,2013-12-28 22:35:00,
2013-12-28 18:00:00,36.0,29.2,30.05,NNE,23,0.0,0.0,76,0.00,,,0.00,WUHU216HW,2013-12-28 23:00:00,
2013-12-28 18:05:00,36.0,29.2,30.05,NNE,23,0.0,0.0,76,0.00,,,0.00,WUHU216HW,2013-12-28 23:05:00,
2013-12-28 18:30:00,34.6,28.4,30.05,NNE,23,0.0,0.0,78,0.00,,,0.00,WUHU216HW,2013-12-28 23:30:00,
2013-12-28 18:35:00,34.6,28.4,30.05,NNE,23,0.0,0.0,78,0.00,,,0.00,WUHU216HW,2013-12-28 23:35:00,
2013-12-28 19:00:00,32.8,27.3,30.05,NNE,23,0.0,0.0,80,0.00,,,0.00,WUHU216HW,2013-12-29 00:00:00,
2013-12-28 19:05:00,32.8,27.3,30.05,NNE,23,0.0,0.0,80,0.00,,,0.00,WUHU216HW,2013-12-29 00:05:00,
2013-12-28 19:30:00,31.9,26.7,30.04,NNE,23,0.0,0.0,81,0.00,,,0.00,WUHU216HW,2013-12-29 00:30:00,
2013-12-28 19:35:00,31.9,26.7,30.04,NNE,23,0.0,0.0,81,0.00,,,0.00,WUHU216HW,2013-12-29 00:35:00,
2013-12-28 20:00:00,31.1,26.7,30.03,NNE,23,0.0,0.0,83,0.00,,,0.00,WUHU216HW,2013-12-29 01:00:00,
2013-12-28 20:05:00,31.1,26.7,30.03,NNE,23,0.0,0.0,83,0.00,,,0.00,WUHU216HW,2013-12-29 01:05:00,
2013-12-28 20:30:00,30.6,26.1,30.02,NNE,23,0.0,0.0,83,0.00,,,0.00,WUHU216HW,2013-12-29 01:30:00,
2013-12-28 20:35:00,30.6,26.1,30.02,NNE,23,0.0,0.0,83,0.00,,,0.00,WUHU216HW,2013-12-29 01:35:00,
2013-12-28 21:00:00,30.6,26.4,30.02,NNE,23,0.0,0.0,84,0.00,,,0.00,WUHU216HW,2013-12-29 02:00:00,
2013-12-28 21:05:00,30.6,26.4,30.02,NNE,23,0.0,0.0,84,0.00,,,0.00,WUHU216HW,2013-12-29 02:05:00,
2013-12-28 21:30:00,30.2,26.0,30.01,NNE,23,0.0,0.0,84,0.00,,,0.00,WUHU216HW,2013-12-29 02:30:00,
2013-12-28 21:35:00,30.2,26.0,30.01,NNE,23,0.0,0.0,84,0.00,,,0.00,WUHU216HW,2013-12-29 02:35:00,
2013-12-28 22:00:00,29.5,25.6,30.00,NNE,23,0.0,0.0,85,0.00,,,0.00,WUHU216HW,2013-12-29 03:00:00,
2013-12-28 22:05:00,29.5,25.6,30.00,NNE,23,0.0,0.0,85,0.00,,,0.00,WUHU216HW,2013-12-29 03:05:00,
2013-12-28 22:30:00,29.7,26.0,29.99,NNE,23,0.0,0.0,86,0.00,,,0.00,WUHU216HW,2013-12-29 03:30:00,
2013-12-28 22:35:00,29.7,26.0,29.99,NNE,23,0.0,0.0,86,0.00,,,0.00,WUHU216HW,2013-12-29 03:35:00,
2013-12-28 23:00:00,29.7,26.0,29.97,NNE,23,0.0,0.0,86,0.00,,,0.00,WUHU216HW,2013-12-29 04:00:00,
2013-12-28 23:05:00,29.7,26.0,29.97,NNE,23,0.0,0.0,86,0.00,,,0.00,WUHU216HW,2013-12-29 04:05:00,
2013-12-28 23:30:00,29.9,26.2,29.96,NNE,23,0.0,0.0,86,0.00,,,0.00,WUHU216HW,2013-12-29 04:30:00,
2013-12-28 23:35:00,29.9,26.2,29.96,NNE,23,0.0,0.0,86,0.00,,,0.00,WUHU216HW,2013-12-29 04:35:00,